NOAA NWS Hourly Roundups by Site

Regional Weather Roundup for Omaha, NE

To Select Another Site Choose from List

Select Site:  

000
ASUS43 KOAX 201903
RWRNE

WEATHER ROUNDUP FOR NEBRASKA
NATIONAL WEATHER SERVICE OMAHA NE
200 PM CDT WED OCT 20 2021

NOTES: SATELLITE DATA IS BEING USED TO AUGMENT CLOUD COVER ABOVE
       12000 FEET.
       "FAIR" INDICATES FEW OR NO CLOUDS BELOW 12,000 FEET WITH NO
       SIGNIFICANT WEATHER AND/OR OBSTRUCTIONS TO VISIBILITY.


NEZ001>004-019>022-054>056-202000-
NEBRASKA PANHANDLE

CITY           SKY/WX    TMP DP  RH WIND       PRES   REMARKS
SCOTTSBLUFF    CLOUDY    48  36  63 NW8       30.19S
ALLIANCE       CLOUDY    40  36  86 NW9       30.17F WCI  34
CHADRON        CLOUDY    41  34  76 NW10      30.20F
GORDON         CLOUDY    37  32  83 N18       30.17S WCI  27
KIMBALL        MOSUNNY   53  32  44 NW15G24   30.19S
SIDNEY         SUNNY     50  33  52 N16G24    30.17F
$$

NEZ057>060-069>072-079>082-202000-
SOUTHWEST NEBRASKA

CITY           SKY/WX    TMP DP  RH WIND       PRES   REMARKS
NORTH PLATTE   CLOUDY    48  32  53 NW23G30   30.16R
IMPERIAL       PTSUNNY   50  33  52 NW18G26   30.18F
LEXINGTON      PTSUNNY   51  33  50 NW22G31   30.13S
MCCOOK         SUNNY     54  33  45 NW25G31   30.15F
OGALLALA       CLOUDY    46  33  61 NW17      30.18S
$$

NEZ005>010-023>029-035>040-094-202000-
NORTH CENTRAL NEBRASKA

CITY           SKY/WX    TMP DP  RH WIND       PRES   REMARKS
VALENTINE      CLOUDY    39  34  82 NW17G29   30.12F WCI  30
AINSWORTH      CLOUDY    39  34  83 NW18G29   30.09F WCI  29
BROKEN BOW     CLOUDY    46  35  65 W22G31    30.10F
O`NEILL        CLOUDY    42  37  81 NW17G29   30.04F
ORD            CLOUDY    44  36  73 NW20G30   30.06F
THEDFORD       CLOUDY    40  33  75 NW21G28   30.14S WCI  31
$$

NEZ041-046>049-061>064-073>077-083>087-202000-
SOUTH CENTRAL NEBRASKA

CITY           SKY/WX    TMP DP  RH WIND       PRES   REMARKS
GRAND ISLAND   CLOUDY    51  37  58 NW26G36   30.07F
AURORA         CLOUDY    51  38  62 NW25G31   30.06F
HASTINGS       CLOUDY    50  37  61 NW22G33   30.09S
HEBRON         PTSUNNY   58  41  53 W13G26    30.06S
HOLDREGE       MOSUNNY   51  34  53 NW14G30   30.11S
KEARNEY        CLOUDY    51  36  56 NW22G28   30.10S
YORK           CLOUDY    50  39  66 NW25G32   30.03F
$$

NEZ011>018-030>034-042>045-202000-
NORTHEAST NEBRASKA

CITY           SKY/WX    TMP DP  RH WIND       PRES   REMARKS
NORFOLK        CLOUDY    46  41  82 W15G28    29.98S HAZE
ALBION         CLOUDY    47  40  76 NW17G29   30.02S
BLAIR          CLOUDY    50  44  79 W17G23    29.96S
COLUMBUS       CLOUDY    49  41  74 W18G26    30.02S
FREMONT        CLOUDY    51  44  76 W18G25    29.98S
TEKAMAH        CLOUDY    52  45  77 W17G25    29.94F
WAYNE          CLOUDY    48  44  86 W17       29.95S
$$

NEZ050>053-065>068-078-088>093-202000-
SOUTHEAST NEBRASKA

CITY           SKY/WX    TMP DP  RH WIND       PRES   REMARKS
LINCOLN        CLOUDY    53  40  61 W20G29    30.03R
OMAHA EPPLEY   CLOUDY    53  45  74 W15G29    29.96S
BEATRICE       CLOUDY    56  41  57 W18G24    30.03S
FALLS CITY     PTSUNNY   59  47  64 NW20G25   29.99F
NEBRASKA CITY  CLOUDY    54  43  67 W20G25    30.00R
PLATTSMOUTH    CLOUDY    54  44  68 W17G26    29.98R
$$

NEZ044-045-051>053-067-202000-
OMAHA AREA

CITY           SKY/WX    TMP DP  RH WIND       PRES   REMARKS
OMAHA EPPLEY   CLOUDY    53  45  74 W15G29    29.96S
BLAIR          CLOUDY    50  44  79 W17G23    29.96S
FREMONT        CLOUDY    51  44  76 W18G25    29.98S
MILLARD        CLOUDY    54  43  67 W14G20    29.98S
OFFUTT AFB     CLOUDY    53  43  67 W15G21    29.99R
PLATTSMOUTH    CLOUDY    54  44  68 W17G26    29.98R
WAHOO          CLOUDY    51  43  73 W22       29.99S
$$


 

View Past Reports for Omaha, NE.

Products Courtesy of NOAA-NWS
NWS Information Parsing Script by Ken True at Saratoga Weather - Script by SE Lincoln Weather.